User: anonymous   Login
Location: Caltech
(34.1382°N, 118.1253°W)
Time: 14:50:56
(UTC-07:00)
Language:

Hamsat - Orbit

View from above orbital plane
View from above orbital plane
View from above satellite
View from above satellite

Ground track
Ground track

The orbit data is extracted from the following two-line orbital elements,

1 28650U 05017B   16118.90862780  .00000676  00000-0  78544-4 0  9992
2 28650  97.6048 102.7628 0025279  67.4005 292.9883 14.88219921594396
Epoch (UTC): 27 April 2016 21:48:25
Eccentricity: 0.0025279
inclination: 97.6048°
perigee height: 586 km
apogee height: 621 km
right ascension of ascending node: 102.7628°
argument of perigee: 67.4005°
revolutions per day: 14.88219921
mean anomaly at epoch: 292.9883°
orbit number at epoch: 59439

The dashed part of the orbit path shows where the satellite is in the earth's shadow,  

DLR